Escanaba, MI

7:28 PM EDT on August 31, 2016 (GMT -0400)
Delta County

Weather History for KESC - March, 2013

Change the Weather History Date:

Friday, March 1, 2013

  Actual Average Record
Temperature  
Mean Temperature 22 °F -  
Max Temperature 26 °F 32 °F 51 °F (1990)
Min Temperature 19 °F 13 °F -16 °F (1962)
Degree Days  
Heating Degree Days 42    
Moisture  
Dew Point 11 °F    
Average Humidity 63    
Maximum Humidity 80    
Minimum Humidity 43    
Precipitation  
Precipitation 0.00 in - - ()
Sea Level Pressure  
Sea Level Pressure 30.25 in    
Wind  
Wind Speed 12 mph (North)    
Max Wind Speed 17 mph    
Max Gust Speed 26 mph    
Visibility 10 miles    
Events      
Averages and records for this station are not official NWS values.
T = Trace of Precipitation, MM = Missing Value Source: NWS Daily Summary

Daily Weather History Graph

Daily Weather History Graph

Search for Another Location

Airport or City:

Trip Planner

Search our weather history database for the weather conditions in past years. The results will help you decide how hot, cold, wet, or windy it might be!

Date:

Astronomy

Mar. 01, 2013 Rise Set
Actual Time 7:26 AM EST 6:35 PM EST
Civil Twilight 6:56 AM EST 7:05 PM EST
Nautical Twilight 6:22 AM EST 7:39 PM EST
Astronomical Twilight 5:47 AM EST 8:14 PM EST
Moon 11:25 PM EST (3/1) 8:57 AM EST (3/1)
Length of Visible Light 12h 08m
Length of Day
11h 09m
Waning Gibbous, 83% of the Moon is Illuminated
Mar 1
Waning Gibbous
Mar 4
Last Quarter
Mar 11
New
Mar 19
First Quarter
Mar 27
Full

Hourly Weather History & Observations

Time (EST) Temp. Windchill Dew Point Humidity Pressure Visibility Wind Dir Wind Speed Gust Speed Precip Events Conditions
12:35 AM 23.0 °F 12.4 °F 12.2 °F 63% 30.16 in 10.0 mi NNE 10.4 mph 26.5 mph N/A   Mostly Cloudy
12:55 AM 23.0 °F 10.6 °F 12.2 °F 63% 30.16 in 10.0 mi NNE 13.8 mph 21.9 mph N/A   Scattered Clouds
1:15 AM 23.0 °F 11.1 °F 12.2 °F 63% 30.17 in 10.0 mi NNE 12.7 mph 24.2 mph N/A   Clear
1:35 AM 23.0 °F 11.1 °F 12.2 °F 63% 30.17 in 10.0 mi NNE 12.7 mph 25.3 mph N/A   Clear
1:55 AM 23.0 °F 11.1 °F 12.2 °F 63% 30.17 in 10.0 mi NNE 12.7 mph 19.6 mph N/A   Clear
2:15 AM 21.2 °F 8.9 °F 12.2 °F 68% 30.17 in 10.0 mi NNE 12.7 mph 18.4 mph N/A   Clear
2:35 AM 21.2 °F 10.1 °F 12.2 °F 68% 30.18 in 10.0 mi NNE 10.4 mph 18.4 mph N/A   Clear
2:55 AM 21.2 °F 10.1 °F 12.2 °F 68% 30.18 in 10.0 mi North 10.4 mph 19.6 mph N/A   Clear
3:15 AM 21.2 °F 8.9 °F 12.2 °F 68% 30.19 in 10.0 mi NNE 12.7 mph 21.9 mph N/A   Clear
3:35 AM 21.2 °F 9.5 °F 12.2 °F 68% 30.19 in 10.0 mi NNE 11.5 mph 18.4 mph N/A   Clear
3:55 AM 21.2 °F 9.5 °F 12.2 °F 68% 30.19 in 10.0 mi NNE 11.5 mph 21.9 mph N/A   Partly Cloudy
4:55 AM 19.4 °F 6.6 °F 12.2 °F 74% 30.20 in 10.0 mi NNE 12.7 mph 20.7 mph N/A   Overcast
5:15 AM 21.2 °F 9.5 °F 12.2 °F 68% 30.20 in 10.0 mi North 11.5 mph 24.2 mph N/A   Overcast
5:35 AM 21.2 °F 7.8 °F 12.2 °F 68% 30.21 in 10.0 mi North 15.0 mph 21.9 mph N/A   Overcast
5:55 AM 19.4 °F 6.6 °F 12.2 °F 74% 30.22 in 10.0 mi North 12.7 mph 18.4 mph N/A   Overcast
6:15 AM 21.2 °F 8.3 °F 12.2 °F 68% 30.22 in 10.0 mi North 13.8 mph 24.2 mph N/A   Overcast
6:35 AM 19.4 °F 6.6 °F 14.0 °F 80% 30.23 in 10.0 mi North 12.7 mph 23.0 mph N/A   Overcast
6:55 AM 19.4 °F 6.6 °F 12.2 °F 74% 30.23 in 10.0 mi NNE 12.7 mph 18.4 mph N/A   Overcast
7:15 AM 19.4 °F 8.6 °F 14.0 °F 80% 30.24 in 10.0 mi North 9.2 mph 20.7 mph N/A   Overcast
7:35 AM 19.4 °F 7.9 °F 12.2 °F 74% 30.25 in 10.0 mi NNE 10.4 mph 19.6 mph N/A   Overcast
7:55 AM 19.4 °F 8.6 °F 12.2 °F 74% 30.26 in 10.0 mi North 9.2 mph 19.6 mph N/A   Overcast
8:15 AM 19.4 °F 7.9 °F 12.2 °F 74% 30.26 in 10.0 mi NNE 10.4 mph 20.7 mph N/A   Overcast
8:35 AM 19.4 °F 7.2 °F 12.2 °F 74% 30.26 in 10.0 mi North 11.5 mph 19.6 mph N/A   Overcast
9:15 AM 21.2 °F 8.3 °F 12.2 °F 68% 30.26 in 10.0 mi NNE 13.8 mph 18.4 mph N/A   Overcast
9:35 AM 21.2 °F 8.3 °F 12.2 °F 68% 30.27 in 10.0 mi North 13.8 mph 21.9 mph N/A   Overcast
9:55 AM 21.2 °F 6.8 °F 12.2 °F 68% 30.27 in 10.0 mi North 17.3 mph 24.2 mph N/A   Overcast
10:15 AM 21.2 °F 7.3 °F 14.0 °F 74% 30.28 in 10.0 mi NNE 16.1 mph 20.7 mph N/A   Overcast
10:35 AM 21.2 °F 8.9 °F 12.2 °F 68% 30.28 in 10.0 mi North 12.7 mph 25.3 mph N/A   Overcast
10:55 AM 21.2 °F 8.3 °F 12.2 °F 68% 30.28 in 10.0 mi NNE 13.8 mph 21.9 mph N/A   Overcast
11:15 AM 23.0 °F 11.1 °F 12.2 °F 63% 30.28 in 10.0 mi North 12.7 mph 19.6 mph N/A   Overcast
11:35 AM 23.0 °F 10.6 °F 14.0 °F 68% 30.28 in 10.0 mi North 13.8 mph 20.7 mph N/A   Overcast
11:55 AM 23.0 °F 10.6 °F 14.0 °F 68% 30.29 in 10.0 mi North 13.8 mph 20.7 mph N/A   Overcast
12:15 PM 24.8 °F 14.0 °F 12.2 °F 59% 30.29 in 10.0 mi North 11.5 mph 20.7 mph N/A   Overcast
12:35 PM 23.0 °F 10.6 °F 12.2 °F 63% 30.28 in 10.0 mi NNW 13.8 mph 19.6 mph N/A   Overcast
12:55 PM 24.8 °F 13.4 °F 12.2 °F 59% 30.28 in 10.0 mi North 12.7 mph 19.6 mph N/A   Mostly Cloudy
1:15 PM 24.8 °F 12.9 °F 12.2 °F 59% 30.28 in 10.0 mi North 13.8 mph 21.9 mph N/A   Mostly Cloudy
1:35 PM 24.8 °F 13.4 °F 12.2 °F 59% 30.27 in 10.0 mi North 12.7 mph 19.6 mph N/A   Scattered Clouds
1:55 PM 24.8 °F 11.5 °F 12.2 °F 59% 30.27 in 10.0 mi NNW 17.3 mph 24.2 mph N/A   Scattered Clouds
2:15 PM 24.8 °F 14.6 °F 10.4 °F 54% 30.26 in 10.0 mi North 10.4 mph 23.0 mph N/A   Clear
2:35 PM 26.6 °F 15.2 °F 10.4 °F 51% 30.26 in 10.0 mi North 13.8 mph 20.7 mph N/A   Clear
2:55 PM 26.6 °F 14.7 °F 8.6 °F 47% 30.25 in 10.0 mi NNE 15.0 mph 20.7 mph N/A   Clear
3:15 PM 26.6 °F 16.8 °F 8.6 °F 47% 30.26 in 10.0 mi North 10.4 mph 21.9 mph N/A   Clear
3:35 PM 26.6 °F 14.7 °F 8.6 °F 47% 30.25 in 10.0 mi NNE 15.0 mph 21.9 mph N/A   Clear
4:15 PM 26.6 °F 15.2 °F 6.8 °F 43% 30.26 in 10.0 mi North 13.8 mph 23.0 mph N/A   Clear
4:35 PM 26.6 °F 15.7 °F 6.8 °F 43% 30.26 in 10.0 mi North 12.7 mph 21.9 mph N/A   Clear
4:55 PM 24.8 °F 14.0 °F 6.8 °F 46% 30.26 in 10.0 mi North 11.5 mph 23.0 mph N/A   Clear
5:15 PM 24.8 °F 14.0 °F 6.8 °F 46% 30.27 in 10.0 mi North 11.5 mph 19.6 mph N/A   Clear
5:35 PM 24.8 °F 14.0 °F 6.8 °F 46% 30.27 in 10.0 mi North 11.5 mph 23.0 mph N/A   Clear
5:55 PM 23.0 °F 10.6 °F 8.6 °F 54% 30.28 in 10.0 mi North 13.8 mph 21.9 mph N/A   Clear
6:15 PM 21.2 °F 8.3 °F 8.6 °F 58% 30.28 in 10.0 mi North 13.8 mph 19.6 mph N/A   Clear
6:35 PM 21.2 °F 8.9 °F 8.6 °F 58% 30.29 in 10.0 mi North 12.7 mph 21.9 mph N/A   Clear
6:55 PM 21.2 °F 10.1 °F 8.6 °F 58% 30.29 in 10.0 mi North 10.4 mph 18.4 mph N/A   Clear
7:15 PM 19.4 °F 9.5 °F 8.6 °F 63% 30.29 in 10.0 mi North 8.1 mph - N/A   Clear
7:35 PM 19.4 °F 9.5 °F 8.6 °F 63% 30.29 in 10.0 mi North 8.1 mph 18.4 mph N/A   Clear
7:55 PM 19.4 °F 10.4 °F 8.6 °F 63% 30.29 in 10.0 mi North 6.9 mph 16.1 mph N/A   Clear
8:15 PM 19.4 °F 8.6 °F 8.6 °F 63% 30.29 in 10.0 mi North 9.2 mph - N/A   Clear
8:35 PM 19.4 °F 8.6 °F 8.6 °F 63% 30.28 in 10.0 mi North 9.2 mph - N/A   Clear
8:55 PM 19.4 °F 9.5 °F 8.6 °F 63% 30.28 in 10.0 mi North 8.1 mph - N/A   Clear
9:15 PM 19.4 °F 10.4 °F 10.4 °F 68% 30.27 in 10.0 mi North 6.9 mph - N/A   Clear
9:35 PM 19.4 °F 9.5 °F 10.4 °F 68% 30.27 in 10.0 mi North 8.1 mph - N/A   Clear
9:55 PM 19.4 °F 9.5 °F 8.6 °F 63% 30.27 in 10.0 mi North 8.1 mph - N/A   Clear
10:15 PM 19.4 °F 10.4 °F 8.6 °F 63% 30.26 in 10.0 mi NNW 6.9 mph - N/A   Clear
10:35 PM 19.4 °F 11.5 °F 8.6 °F 63% 30.26 in 10.0 mi NNW 5.8 mph - N/A   Clear
10:55 PM 19.4 °F 11.5 °F 8.6 °F 63% 30.25 in 10.0 mi North 5.8 mph - N/A   Clear
11:15 PM 19.4 °F 10.4 °F 8.6 °F 63% 30.25 in 10.0 mi North 6.9 mph - N/A   Clear
11:35 PM 19.4 °F 11.5 °F 6.8 °F 58% 30.25 in 10.0 mi North 5.8 mph - N/A   Clear
11:55 PM 19.4 °F 11.5 °F 8.6 °F 63% 30.25 in 10.0 mi North 5.8 mph - N/A   Clear